Theta_e
322 322 323 323 322 321 323 323 319 321 325 323 319 318 320 319 319 321 320 320 324 325 326 329 329 329 330 330 331 336 337 338 348 352 352 352 353 352 351 354 354 357 357 355 354 354 355 355 357 356 354 355 355 356 357 357 356 353 348 342 338 335 332
322 322 323 324 323 323 321 320 321 324 325 324 321 318 319 319 318 320 320 319 320 320 322 329 330 328 329 331 330 332 337 335 345 352 353 351 352 352 352 354 354 355 357 353 354 357 357 357 357 356 356 356 356 356 357 358 358 356 351 346 342 338 335
322 323 322 321 323 324 322 321 324 323 320 320 321 318 318 319 318 319 319 320 320 319 322 327 330 329 330 332 330 331 334 336 339 348 354 352 349 350 353 353 355 357 356 354 356 359 358 358 357 357 356 356 357 357 358 360 359 356 353 349 346 341 337
320 320 320 318 320 323 323 323 324 323 320 320 320 320 319 318 318 319 319 319 319 322 328 330 331 332 331 332 333 331 332 337 339 340 348 348 348 352 354 354 355 356 355 354 357 358 359 358 358 358 357 357 358 357 359 362 361 359 357 354 349 345 340
317 317 318 318 318 320 321 321 321 321 321 322 321 321 319 318 318 318 319 318 319 325 332 333 334 333 332 332 334 333 332 335 338 337 338 341 349 354 353 353 355 354 353 354 356 358 358 357 358 359 358 357 357 357 360 363 363 362 361 357 353 349 343
314 315 318 319 319 320 320 320 319 320 321 320 319 319 320 318 318 318 319 318 320 329 333 333 333 334 333 333 333 332 332 332 334 336 337 339 346 352 353 353 353 352 353 355 357 358 357 357 357 358 359 357 357 358 360 363 364 364 363 360 357 352 347
315 317 319 320 320 320 321 320 321 322 322 320 317 318 320 318 317 318 318 317 322 331 336 333 333 333 334 335 334 333 331 333 333 333 335 337 340 348 353 352 352 352 354 355 357 358 356 356 356 358 358 358 357 359 359 362 364 365 364 362 358 354 351
316 317 318 319 320 320 319 319 321 321 321 320 320 321 322 320 318 318 318 316 321 331 336 335 335 334 333 333 333 334 333 331 333 332 334 337 337 341 348 351 351 353 355 357 358 357 356 355 355 357 358 358 357 357 359 361 364 366 364 362 360 357 352
317 317 316 316 317 318 318 319 320 321 321 322 321 322 323 322 321 320 319 317 320 328 336 334 333 332 334 333 332 333 333 331 333 333 330 334 336 336 339 346 350 353 356 356 355 354 354 353 354 355 357 359 357 358 359 360 363 366 365 365 363 359 353
316 316 316 315 316 319 320 320 321 322 321 321 321 320 321 321 323 323 322 320 322 329 335 336 337 335 331 333 334 331 332 332 335 338 337 334 336 335 333 341 350 353 352 352 351 352 352 353 354 354 357 359 359 358 358 358 361 366 366 365 364 362 359
317 317 318 318 318 318 320 321 321 322 323 323 323 322 321 322 324 323 325 326 325 328 336 339 343 343 335 333 336 337 342 340 339 345 346 341 336 336 336 338 347 352 351 349 349 350 352 353 355 356 357 359 359 358 357 357 361 365 366 365 364 363 363
315 316 317 317 317 317 318 319 319 320 321 322 322 322 322 325 324 322 328 332 327 327 336 341 343 345 344 345 346 346 349 347 346 350 350 347 339 335 336 338 343 350 351 350 349 350 352 353 354 356 357 358 359 358 358 360 361 364 366 365 363 363 363
313 313 314 314 314 315 315 316 317 318 319 320 321 322 322 324 324 323 327 330 327 329 338 342 343 344 345 348 349 349 350 350 349 351 351 350 349 345 349 352 351 351 351 352 352 351 351 352 354 356 357 358 360 360 361 361 362 363 365 364 363 363 363
311 311 312 313 313 313 313 314 316 317 317 318 319 321 322 323 323 324 326 327 328 333 340 341 343 343 344 347 348 348 350 349 347 348 348 349 349 350 353 355 356 356 354 353 353 352 351 351 354 357 357 360 361 361 362 362 362 363 364 364 363 363 363
312 312 312 312 313 313 313 313 315 315 316 316 317 318 321 322 322 324 326 326 328 337 342 339 341 342 342 346 348 348 349 348 346 346 346 346 347 348 349 350 352 356 358 355 354 357 357 356 356 356 358 361 361 361 361 362 363 362 363 363 362 362 362
312 312 312 312 313 313 312 313 314 314 315 316 317 319 320 321 322 324 324 323 329 339 342 339 341 342 342 344 347 348 347 346 345 344 344 345 345 346 348 348 348 351 355 357 357 357 358 359 359 358 359 360 360 361 361 361 362 362 362 363 362 362 362
312 312 312 312 313 313 313 313 313 315 315 316 316 317 319 321 323 323 323 325 331 337 338 338 339 340 341 344 345 344 343 343 342 341 342 343 343 345 347 347 346 344 345 352 358 359 359 359 357 356 357 358 358 359 360 360 361 361 361 362 362 361 362
313 312 312 313 314 314 314 314 315 317 317 318 319 319 319 321 322 323 324 326 329 333 336 336 336 337 339 342 342 340 339 339 339 339 340 340 341 343 343 344 346 344 340 344 352 357 360 359 355 354 354 354 356 359 357 358 361 360 361 361 362 361 362
313 312 313 314 314 314 314 315 320 322 321 322 324 324 322 322 323 324 326 327 326 330 334 335 335 335 337 338 338 336 335 336 336 337 337 337 338 339 340 341 342 343 343 342 345 352 357 359 357 355 354 352 354 358 357 357 359 360 360 361 361 361 361
313 313 314 315 315 314 313 317 322 323 324 325 325 325 323 323 325 327 327 328 329 331 332 333 333 334 335 337 335 332 331 332 332 334 334 335 335 336 337 338 340 342 344 345 347 350 356 358 358 357 355 353 352 354 356 357 358 359 360 361 361 361 361
314 312 312 314 314 313 315 320 322 322 322 324 325 326 326 324 324 325 325 326 327 329 329 330 331 331 333 336 333 329 328 329 329 331 331 331 332 334 335 337 338 341 343 344 346 348 353 357 359 359 357 353 349 351 355 356 357 358 359 360 361 361 361
312 312 313 313 313 314 318 320 321 321 322 322 322 325 326 322 321 323 324 323 324 325 325 327 328 330 333 335 333 328 326 327 327 329 329 329 330 331 333 334 336 339 343 344 345 346 348 352 356 359 358 354 349 350 353 355 355 356 357 359 360 361 361
313 312 313 313 313 316 319 320 319 319 321 322 322 325 326 321 319 321 321 321 322 323 323 324 327 332 334 334 330 326 325 325 326 327 327 328 328 329 331 333 335 339 343 345 346 348 349 351 355 359 360 357 351 350 352 354 355 355 357 359 361 361 361
313 313 313 312 314 318 318 318 318 319 320 320 323 327 325 319 318 320 320 321 321 321 321 322 325 328 329 328 326 325 324 324 324 325 325 326 327 328 330 334 339 342 344 345 347 349 351 353 357 360 361 361 357 353 353 354 355 355 357 359 361 361 361
313 313 313 312 315 317 316 316 318 319 318 319 321 324 321 317 317 319 319 319 320 320 320 321 322 323 323 323 323 324 324 323 323 323 323 325 326 327 328 334 340 342 344 346 347 349 351 354 359 361 362 361 359 355 354 354 355 356 358 360 361 362 362
313 312 313 313 315 315 315 315 317 317 318 319 319 318 316 315 317 317 317 318 319 319 319 319 319 320 320 320 322 322 322 322 322 322 322 324 327 329 332 337 339 340 343 345 347 349 350 354 359 360 361 360 357 354 355 355 356 357 359 360 361 362 364
313 312 312 314 315 315 314 315 316 317 317 317 316 314 314 315 316 316 315 316 317 317 317 317 318 318 318 320 321 321 321 321 321 320 321 322 325 328 332 336 338 339 341 344 347 349 350 354 359 361 362 360 355 353 355 357 356 357 359 361 361 361 364
314 314 314 314 314 314 313 314 315 316 316 315 314 314 315 315 315 315 315 315 315 315 316 316 317 317 318 319 320 320 321 321 320 319 319 321 324 326 329 333 335 338 340 342 346 350 352 355 359 361 363 363 355 353 357 357 356 358 359 361 361 362 363
314 313 314 314 314 313 313 314 314 315 315 314 314 314 314 314 314 315 315 314 314 315 315 316 317 317 318 318 319 320 320 320 320 318 317 319 323 325 327 331 334 337 339 341 344 349 353 357 359 360 363 364 358 355 358 357 357 358 359 361 362 362 364
312 313 314 314 313 313 313 314 314 313 313 313 313 313 313 313 313 314 314 314 314 314 315 316 317 317 318 318 318 319 320 320 321 319 316 318 323 324 326 330 333 336 338 342 345 349 354 358 361 361 360 361 358 356 358 358 358 358 359 361 362 363 365
311 313 313 312 312 312 312 313 312 312 312 312 312 312 312 312 312 313 313 313 313 314 314 316 316 317 317 318 318 319 320 320 321 320 317 317 320 323 324 327 330 332 336 340 344 349 354 358 361 360 360 361 360 358 359 359 358 359 361 361 362 363 365
311 311 311 311 311 311 312 311 310 311 311 311 311 312 312 312 312 312 312 313 313 314 314 315 316 316 317 318 318 318 319 320 320 320 319 317 318 321 323 325 329 331 333 336 342 347 353 358 361 361 361 364 364 360 360 360 359 359 361 362 363 364 366
310 311 310 310 310 311 311 310 309 310 310 311 311 311 311 311 311 311 312 312 313 313 314 315 315 316 317 318 318 319 320 320 320 321 319 317 317 320 322 324 328 330 330 333 340 346 352 358 361 362 364 366 365 362 360 360 359 360 362 363 364 365 366
309 310 310 309 309 309 310 309 309 310 310 310 310 311 311 311 311 311 311 312 312 313 314 314 315 316 316 317 318 318 319 320 320 321 320 317 317 320 321 323 327 329 330 333 338 344 351 356 359 362 364 366 366 364 362 361 361 361 363 364 364 365 367
309 309 308 309 309 309 309 309 309 309 310 310 310 310 310 311 311 311 311 311 312 312 313 314 314 315 316 317 318 318 319 319 319 320 320 317 317 320 321 322 325 328 332 334 337 343 349 353 356 361 363 364 366 366 364 362 361 361 364 366 365 366 367
308 308 308 308 308 309 309 309 309 309 309 309 310 310 310 310 310 310 310 311 311 312 313 313 314 314 315 316 317 318 319 319 319 320 320 318 317 319 321 321 323 327 330 332 335 342 348 350 353 359 361 361 363 365 363 362 361 361 362 363 365 366 366
307 307 307 308 308 308 308 308 308 308 309 309 309 309 309 310 310 310 310 310 311 312 313 313 314 314 315 316 317 318 319 319 319 320 319 317 317 320 321 320 322 326 329 330 333 340 346 348 351 355 357 358 361 362 362 362 362 361 360 360 362 363 365
Wind_Speed
9 10 11 13 13 9 6 9 10 9 10 10 8 10 12 12 10 7 7 8 8 7 8 11 13 14 18 19 17 14 19 26 32 39 40 38 38 38 37 36 38 37 38 42 44 45 45 44 42 42 42 42 44 45 46 47 46 47 48 49 48 47 45
9 9 8 9 13 12 8 8 8 9 12 11 8 7 8 10 10 7 8 11 10 9 7 9 15 15 14 17 18 17 18 21 27 35 41 40 39 40 40 39 39 39 39 41 41 41 43 43 44 45 45 44 45 46 47 48 49 48 48 49 49 47 46
7 4 7 10 11 13 12 12 10 8 9 9 8 7 7 9 9 7 10 13 11 9 7 8 14 15 12 13 18 19 16 13 19 27 39 43 38 39 42 40 38 40 41 41 41 41 42 44 47 47 45 43 43 44 45 47 50 50 49 48 48 47 46
11 6 6 7 8 10 12 13 13 10 7 7 8 8 7 8 8 7 10 11 9 8 7 9 12 15 14 14 14 18 17 14 17 23 31 39 36 38 45 41 38 41 42 42 43 43 43 46 48 47 44 42 41 41 42 45 46 46 46 47 48 47 47
11 7 5 7 8 9 10 11 11 10 8 7 7 8 9 8 7 7 8 8 7 7 9 10 9 13 17 16 12 12 16 20 23 24 25 30 35 39 42 40 38 39 39 40 42 42 43 44 45 46 45 42 41 40 41 43 44 43 44 46 47 47 47
8 9 9 10 10 10 10 10 10 10 10 9 8 8 9 10 8 7 8 8 7 6 5 9 11 12 16 15 11 10 15 21 25 25 24 22 30 39 43 40 38 38 36 36 39 40 40 40 42 46 46 44 43 42 41 41 43 43 43 44 45 46 46
10 14 15 15 15 16 15 12 11 13 11 9 8 7 8 10 10 10 9 8 9 6 4 8 11 13 12 12 12 12 16 21 23 25 25 22 23 33 43 43 39 38 38 37 37 39 40 39 42 46 47 46 45 44 42 40 42 44 44 43 44 45 45
11 16 18 18 17 15 13 11 12 14 11 8 9 8 8 9 10 11 9 8 10 7 7 11 7 4 7 11 14 13 14 18 22 23 25 25 23 25 34 42 43 41 42 42 39 40 41 40 44 47 46 46 45 44 43 41 42 44 44 43 42 44 45
8 10 12 12 12 11 10 10 12 16 17 14 13 11 8 8 11 12 9 7 9 7 5 9 6 3 5 5 7 13 15 16 18 19 22 27 30 30 29 33 44 46 44 44 42 42 43 41 42 45 46 45 45 45 43 41 41 42 42 42 42 43 45
7 7 4 4 6 7 7 10 14 16 17 15 13 10 8 8 10 14 9 6 9 8 4 8 9 7 7 6 3 9 11 10 10 6 8 16 27 37 33 29 44 51 46 45 43 42 44 43 40 42 45 45 44 44 44 42 42 41 41 41 41 42 43
10 10 8 10 10 10 9 11 15 15 14 15 12 8 8 7 6 10 9 8 11 8 3 10 14 10 5 6 7 7 9 7 6 13 15 8 14 33 36 31 40 47 45 44 43 43 44 43 40 42 45 46 44 44 45 44 42 41 40 41 41 41 42
17 17 18 17 14 13 14 14 17 17 15 17 14 9 10 9 7 8 11 12 13 9 4 10 15 17 9 8 13 16 22 19 15 22 27 19 3 26 34 26 29 40 45 44 42 44 46 44 41 42 43 45 45 44 44 44 42 40 40 41 41 42 41
20 20 20 21 17 15 17 16 18 19 17 17 15 13 14 11 8 10 14 18 19 12 4 10 12 16 14 17 21 23 24 23 21 23 26 27 18 8 13 8 7 19 35 44 43 44 45 43 41 40 40 41 41 41 42 42 40 39 40 41 42 42 43
20 20 19 20 20 18 18 19 18 18 18 18 17 16 16 14 14 16 17 20 21 11 5 9 9 11 16 19 21 23 24 22 23 22 21 25 26 22 25 26 24 19 10 26 38 43 45 45 42 39 38 39 39 39 39 40 40 38 39 41 42 42 44
16 18 18 19 21 19 19 19 18 17 18 19 18 17 16 14 16 18 18 20 15 4 6 7 8 11 15 17 16 16 20 21 22 22 21 22 23 25 27 26 23 25 21 7 10 21 28 35 39 36 35 37 37 36 37 38 39 38 38 42 43 44 44
12 14 17 18 19 19 20 20 19 18 18 17 16 15 14 14 15 17 18 16 7 4 7 10 11 11 10 11 12 11 13 17 19 20 20 22 23 24 25 25 23 21 19 16 9 3 6 15 26 28 28 31 33 34 35 36 38 37 37 40 43 44 43
10 14 16 15 16 16 15 15 16 18 18 18 18 17 18 18 15 13 13 7 2 8 9 10 11 9 7 8 11 11 11 14 16 18 19 20 21 22 22 22 22 19 14 11 9 9 9 8 19 22 22 26 29 31 33 34 35 36 36 38 41 43 42
9 13 13 12 13 12 10 10 11 12 13 15 17 17 18 18 16 14 15 9 2 5 7 9 10 9 10 9 10 14 14 13 14 16 17 18 18 19 19 19 19 18 15 12 8 7 11 8 14 21 22 25 26 28 30 31 32 35 35 36 39 42 42
9 11 9 10 10 10 10 10 8 10 10 10 12 15 17 17 16 15 15 15 13 5 4 6 8 10 10 8 12 15 15 15 15 15 16 18 18 17 17 17 17 18 16 13 12 10 11 12 9 14 18 23 24 24 27 29 30 33 35 35 38 42 42
8 8 8 9 7 8 12 8 10 12 8 7 10 12 14 11 9 10 12 15 18 12 5 7 10 12 10 4 13 18 17 17 18 16 16 17 18 17 18 17 17 18 16 13 12 11 9 11 12 13 15 21 23 23 27 30 30 32 35 35 37 41 42
7 8 9 9 8 10 11 5 8 9 6 7 7 6 5 9 15 15 13 15 18 18 17 16 15 16 13 3 9 19 21 19 19 17 16 17 17 17 18 17 16 17 16 14 14 14 12 10 11 13 16 21 24 25 29 33 32 33 35 36 37 41 42
7 9 9 7 9 8 4 2 6 8 6 6 6 6 3 9 18 19 15 13 15 17 19 21 19 15 11 6 6 18 23 21 21 20 18 19 19 19 19 19 19 18 17 18 18 17 16 15 14 15 17 21 27 30 31 34 35 36 38 39 40 42 44
8 8 7 7 8 4 2 4 7 10 9 8 6 6 4 6 16 20 16 13 14 15 18 21 18 11 5 3 8 19 23 22 22 21 21 21 21 20 19 19 21 22 21 20 19 16 15 15 14 17 20 22 29 36 37 37 37 39 42 43 44 46 47
11 10 8 7 4 1 5 7 8 11 11 9 5 5 2 8 16 18 16 15 14 16 18 18 13 8 6 8 15 21 22 21 21 21 21 22 23 22 22 20 21 23 23 22 20 17 17 16 14 16 20 24 29 37 41 40 39 40 43 44 45 46 46
10 11 10 7 2 2 7 11 11 11 11 7 4 3 2 10 15 15 15 15 14 15 16 13 10 11 13 16 20 23 22 21 21 22 22 23 22 21 22 21 21 23 24 24 23 20 20 19 16 14 17 22 27 33 40 42 41 41 43 44 43 43 43
8 9 9 8 3 2 11 15 10 8 7 5 2 4 7 11 14 14 14 14 14 15 16 13 12 16 19 20 20 21 22 22 22 22 24 24 23 21 20 20 20 23 25 26 25 23 21 20 18 14 14 21 27 30 37 43 42 40 40 41 41 41 42
6 7 8 7 3 4 13 14 8 6 6 3 4 9 11 11 12 14 14 14 14 16 17 17 18 19 20 20 19 20 21 21 21 22 24 25 25 24 22 21 21 23 25 26 25 24 21 21 20 16 14 19 27 29 35 44 44 38 36 38 40 41 41
3 4 3 3 3 5 11 10 5 4 6 6 8 11 12 12 13 13 15 15 14 16 18 20 22 22 21 19 19 20 21 20 20 22 24 26 26 25 24 23 23 23 24 25 25 23 21 21 21 18 15 18 26 29 34 42 43 37 35 37 40 41 41
3 4 4 3 3 6 10 9 6 6 6 7 10 11 13 14 13 13 15 17 17 17 18 19 21 22 22 21 21 22 22 22 22 24 26 26 26 26 26 24 23 23 23 24 24 23 21 19 19 17 16 20 25 29 33 39 41 37 35 38 40 41 42
6 5 5 5 7 11 12 8 6 6 7 8 11 12 14 14 14 14 16 18 18 18 18 19 19 20 21 23 23 22 23 23 23 27 29 26 26 28 28 25 24 24 23 22 22 22 22 19 16 16 16 19 24 29 32 38 41 38 36 38 41 42 42
8 5 4 9 14 16 12 7 7 9 10 11 12 14 15 16 17 17 17 18 19 19 18 18 19 19 20 22 23 22 23 22 23 27 29 27 26 29 29 27 27 26 25 24 22 22 22 19 15 15 15 15 21 29 33 37 40 39 38 39 42 42 42
7 6 8 15 19 15 8 8 11 13 13 14 16 16 17 18 18 18 18 19 19 19 18 18 20 20 19 20 21 22 21 21 22 24 27 27 27 29 30 28 27 27 28 27 24 22 21 18 14 14 13 12 17 28 34 36 39 40 38 40 43 43 42
7 6 9 17 17 9 6 12 16 16 15 17 18 17 17 18 18 18 19 19 19 19 20 20 20 21 19 18 19 20 21 21 21 23 26 26 25 29 31 28 26 29 31 28 24 21 18 15 12 12 13 11 14 26 32 34 37 39 38 40 42 43 42
5 6 10 14 10 7 10 17 19 18 18 19 19 18 18 18 19 19 20 20 20 20 20 19 20 21 20 18 18 19 20 21 20 22 25 24 24 28 31 28 28 30 30 28 25 20 14 11 11 13 16 14 15 23 29 32 35 35 35 39 41 41 40
6 9 13 13 10 10 16 20 20 19 20 19 18 19 19 18 19 20 20 21 21 21 20 19 19 21 21 18 17 19 20 20 20 20 21 21 22 26 29 30 32 32 30 28 26 21 14 11 11 13 16 16 16 21 26 30 33 32 30 34 38 40 40
9 11 13 14 14 15 18 20 20 19 19 18 18 18 18 18 19 20 20 21 22 22 22 21 20 21 21 19 18 19 20 20 19 19 19 18 19 23 27 31 34 33 32 33 31 24 17 13 10 11 13 15 17 21 24 26 31 33 31 29 31 36 39
10 11 12 14 15 16 17 17 17 16 16 17 18 18 18 18 19 20 21 22 22 21 22 22 22 21 20 19 18 19 19 19 18 18 18 18 16 20 26 31 33 33 33 34 33 26 17 11 8 6 8 11 15 20 23 24 27 32 34 32 30 31 35
Wind_Direction
248 224 208 208 227 250 242 220 220 222 234 249 255 260 272 279 277 266 252 237 219 214 227 223 221 220 212 219 238 226 203 195 175 166 175 179 180 184 185 185 187 188 194 202 201 199 202 201 200 199 198 201 203 203 205 206 206 206 206 207 210 212 213
262 252 271 258 226 227 249 239 219 212 223 237 254 262 259 260 264 261 260 256 233 214 213 206 213 221 214 204 213 229 224 200 176 166 171 179 183 185 185 186 187 188 193 200 200 198 200 200 201 200 198 200 203 204 205 206 205 207 209 209 210 212 213
311 273 271 283 253 227 240 265 266 244 232 228 228 246 252 249 254 253 255 261 255 237 213 196 205 205 213 215 204 216 229 200 181 176 173 180 188 182 179 183 184 186 193 197 196 196 197 199 203 202 199 200 204 204 204 205 207 210 212 211 210 212 214
322 307 237 252 260 233 227 252 269 266 267 262 234 227 235 248 256 253 252 252 251 257 245 220 202 181 195 230 217 209 215 191 189 201 190 185 185 176 174 180 182 185 193 196 194 196 197 200 203 202 199 200 204 205 202 202 206 208 209 211 211 212 214
306 289 247 243 252 246 224 225 247 258 259 266 268 250 227 229 247 250 255 255 242 247 259 254 222 175 182 212 227 217 213 199 194 211 213 191 177 173 174 177 180 183 189 192 192 195 196 198 202 201 199 200 205 208 205 201 201 202 204 209 211 212 213
276 257 261 263 260 273 270 242 237 248 244 238 255 261 237 222 230 242 250 261 261 245 255 272 250 202 179 188 209 222 220 213 203 208 217 197 174 172 173 175 179 182 185 189 190 193 193 193 199 201 199 199 202 207 207 202 199 199 200 203 208 210 212
273 278 283 290 296 303 299 281 255 243 237 237 244 251 252 237 223 231 244 251 264 275 327 312 261 219 191 179 189 211 219 219 215 210 210 204 187 178 174 175 178 179 182 186 187 190 191 192 198 203 201 199 200 204 207 205 200 199 200 201 205 209 209
277 282 282 288 295 293 283 275 267 253 242 257 274 275 285 272 237 226 228 234 250 272 342 340 320 244 216 193 183 204 221 216 216 217 208 200 197 193 185 180 178 177 181 183 185 189 191 194 199 202 201 200 200 202 206 207 203 200 199 200 202 206 209
264 263 260 264 266 264 258 253 263 259 248 253 271 285 298 290 270 255 238 227 239 254 318 308 288 226 236 241 189 201 219 217 210 216 215 201 193 198 203 188 175 176 180 181 185 191 193 195 199 201 200 198 199 202 204 208 207 202 198 196 198 205 209
255 245 240 270 272 279 277 266 273 272 262 261 270 281 272 256 274 275 260 243 239 236 295 301 280 226 218 308 325 186 209 221 181 168 239 220 194 194 202 188 172 176 182 183 187 192 193 193 194 198 199 197 198 201 203 207 208 203 198 195 196 201 205
270 273 302 325 319 316 305 290 293 295 296 297 295 288 271 267 303 287 270 278 262 247 359 357 340 326 258 299 348 67 39 8 83 54 11 321 203 190 191 187 176 176 180 184 189 193 194 193 193 195 198 198 199 201 202 206 207 202 198 196 196 198 199
271 278 291 299 299 296 290 290 293 294 302 305 299 295 295 310 339 300 287 299 279 262 26 29 0 353 359 5 8 31 33 25 35 36 25 9 255 184 180 185 181 176 178 182 188 194 194 194 196 197 198 199 201 202 202 203 204 201 198 196 197 199 198
266 271 278 284 285 281 278 279 281 282 288 290 282 281 288 299 305 282 290 302 284 269 21 48 18 355 10 34 23 16 20 25 28 33 32 22 15 102 118 79 104 158 176 183 187 193 195 195 197 197 198 198 199 201 201 202 202 201 199 197 197 199 199
264 265 271 278 278 271 268 267 267 271 277 280 279 280 283 285 285 277 278 285 279 277 15 47 45 11 10 34 34 13 4 12 23 29 33 27 22 31 38 33 36 52 121 179 189 194 196 196 197 197 196 196 197 199 200 201 201 200 199 198 198 199 201
264 265 269 273 271 266 264 263 263 267 273 274 273 274 277 279 279 279 276 272 272 306 4 357 43 48 23 24 35 20 0 0 15 23 25 24 20 20 24 25 26 30 36 62 185 198 200 198 196 196 196 195 197 199 200 200 200 200 200 200 200 201 203
262 263 261 262 265 263 259 258 259 262 265 267 266 265 267 266 266 270 269 263 269 16 9 358 22 46 40 26 27 25 8 1 8 16 18 17 15 14 18 19 15 15 21 26 29 356 257 208 193 194 197 198 199 200 201 201 200 199 200 200 201 202 203
258 260 260 264 265 257 250 249 251 254 257 261 262 259 257 258 263 266 261 251 21 19 12 14 15 21 36 33 31 30 19 9 9 12 13 13 12 11 13 12 6 360 357 3 19 15 342 258 206 203 212 212 208 205 204 203 201 200 201 201 201 202 204
259 256 260 266 260 250 249 257 262 268 272 271 269 264 257 254 255 260 258 256 320 32 35 21 1 356 358 9 42 44 26 15 13 10 10 11 8 6 7 5 356 348 344 333 320 344 350 310 222 213 225 228 219 211 209 208 204 202 202 202 202 203 204
264 258 253 252 247 246 256 275 320 328 304 303 308 293 273 261 261 272 277 278 276 253 105 42 354 342 342 8 53 48 29 23 18 9 8 7 3 358 357 354 344 337 338 329 303 305 338 331 264 226 231 233 226 216 213 212 209 206 205 204 203 204 204
260 255 241 240 247 261 259 273 6 2 326 340 339 290 269 280 318 348 350 327 310 306 352 19 356 339 328 18 58 39 24 21 16 8 5 0 356 353 349 344 336 327 328 323 302 293 313 321 296 268 243 230 226 219 213 213 212 209 208 207 204 203 204
245 248 246 247 258 268 265 277 16 9 347 358 347 276 273 3 11 11 11 359 345 346 359 2 353 336 313 290 53 29 15 10 6 3 1 354 350 347 340 335 330 321 312 302 288 276 274 279 275 267 251 232 226 220 213 213 212 208 209 211 207 204 204
239 247 251 252 249 252 256 351 351 347 351 347 315 272 289 16 10 3 7 8 355 353 357 352 343 329 295 250 40 19 5 359 357 354 351 348 345 341 337 335 327 312 298 292 288 280 275 268 251 249 252 238 226 222 216 213 211 208 207 210 210 207 206
240 238 241 246 245 245 50 17 327 331 347 351 322 272 261 5 3 360 3 1 351 352 354 347 341 333 296 270 8 5 357 352 350 347 345 342 340 336 334 330 320 308 299 294 290 281 272 266 254 253 259 246 228 221 215 211 211 209 206 207 210 210 209
240 236 239 246 236 80 29 357 331 328 333 338 312 244 242 2 356 355 356 349 345 349 350 347 347 351 347 336 335 340 346 347 344 342 340 337 336 336 333 325 315 309 305 299 293 279 265 261 257 254 259 256 238 222 213 210 211 210 207 207 209 210 209
240 236 237 247 220 60 357 339 337 330 313 295 269 242 330 345 340 347 352 344 338 341 342 343 343 336 332 327 322 326 337 341 339 338 336 332 330 331 330 326 320 312 305 299 294 282 269 266 263 254 257 260 248 226 212 210 211 210 208 207 207 208 207
240 239 242 247 211 45 346 333 336 337 308 262 262 330 327 325 329 336 342 342 341 339 335 330 323 319 321 321 321 325 332 335 336 335 333 330 328 327 325 323 320 315 306 300 295 283 270 265 264 264 266 262 252 234 215 209 210 210 208 206 205 206 206
239 240 249 254 233 16 357 346 347 4 352 320 321 324 316 315 321 323 326 334 341 338 332 326 320 317 317 317 319 321 326 330 333 333 331 330 330 331 330 326 325 321 312 304 298 287 273 265 263 268 275 263 252 240 221 211 209 209 207 204 204 205 205
265 247 253 261 258 329 351 350 337 344 350 334 318 315 314 315 314 311 313 318 325 328 325 321 319 317 315 315 315 317 320 325 329 331 331 330 331 334 334 331 329 326 317 311 303 288 274 269 266 269 282 271 252 240 226 213 207 205 205 204 203 204 204
306 286 293 305 299 318 337 346 341 329 329 325 317 312 310 312 311 308 306 305 308 315 316 315 315 314 312 313 314 315 319 322 327 331 332 330 330 334 335 332 329 327 322 318 310 293 277 272 268 267 278 273 253 238 226 213 204 201 204 203 201 202 204
321 299 301 339 348 337 337 354 9 346 325 321 318 311 307 308 306 304 303 300 300 304 307 308 309 308 310 312 312 314 317 319 324 329 330 330 329 331 334 334 332 329 324 319 312 298 282 272 265 259 262 261 250 237 224 211 201 199 202 203 200 201 202
333 316 343 358 344 331 334 2 13 351 337 328 320 310 305 303 301 300 300 298 297 298 298 299 301 303 307 309 309 311 314 316 321 326 328 330 329 329 334 337 334 333 331 326 319 307 289 273 261 254 256 257 247 233 219 207 199 198 202 203 200 200 201
319 290 319 338 332 330 355 17 356 341 334 327 320 312 306 301 297 298 299 298 296 294 292 293 296 300 302 305 306 307 310 313 318 320 324 329 330 328 333 337 334 336 338 333 328 317 298 279 261 252 260 267 243 223 210 202 197 197 202 204 201 199 200
308 293 324 337 334 333 359 353 339 330 323 317 313 309 306 301 298 298 297 296 295 291 288 289 292 295 299 303 304 303 305 309 315 316 319 326 330 330 333 336 333 335 338 336 332 326 306 282 265 258 262 261 228 214 208 202 198 199 201 202 201 199 198
312 322 335 339 332 313 317 324 324 320 317 313 308 306 305 300 299 300 298 296 294 290 286 286 287 290 294 298 300 299 299 302 308 313 315 321 329 333 336 337 333 333 339 341 340 340 325 294 277 267 260 247 214 203 203 200 197 200 204 203 200 199 197
306 321 329 332 323 306 308 315 316 315 314 312 308 308 306 303 301 300 297 296 295 291 287 284 282 285 287 290 293 295 294 296 303 308 310 316 329 336 340 341 338 336 342 347 350 355 355 329 295 265 256 250 223 204 201 200 198 201 205 204 201 198 196
307 319 328 328 318 309 309 312 314 312 312 312 310 307 304 304 301 296 292 291 289 288 287 283 280 281 283 284 287 289 290 293 299 304 305 311 326 338 340 341 342 342 344 348 355 5 10 349 306 259 244 245 228 210 208 210 207 206 207 207 204 200 198
315 319 323 319 312 311 314 316 315 313 313 314 311 304 302 302 299 294 291 288 285 284 284 282 280 279 279 280 283 283 285 288 291 297 302 307 322 338 338 338 343 346 346 350 359 7 13 9 344 302 257 240 225 213 214 218 215 212 212 211 210 207 203